TimeEST,TemperatureF,Dew PointF,Humidity,Sea Level PressureIn,VisibilityMPH,Wind Direction,Wind SpeedMPH,Gust SpeedMPH,PrecipitationIn,Events,Conditions,WindDirDegrees,DateUTC
12:15 AM,32.4,26.1,78,29.93,10.0,NW,6.9,-,N/A,,Mostly Cloudy,310,2013-02-17 05:15:00
12:35 AM,32.4,25.2,75,29.94,10.0,NW,6.9,-,N/A,,Overcast,310,2013-02-17 05:35:00
12:55 AM,32.2,24.8,74,29.94,10.0,NW,4.6,-,N/A,,Overcast,310,2013-02-17 05:55:00
1:15 AM,32.2,24.1,72,29.95,10.0,WNW,6.9,-,N/A,,Overcast,300,2013-02-17 06:15:00
1:35 AM,32.0,23.5,71,29.96,10.0,WNW,6.9,-,N/A,,Overcast,300,2013-02-17 06:35:00
1:55 AM,32.0,22.6,68,29.96,10.0,NW,4.6,-,N/A,,Overcast,310,2013-02-17 06:55:00
2:15 AM,31.8,22.5,68,29.96,10.0,WNW,5.8,-,N/A,,Mostly Cloudy,300,2013-02-17 07:15:00
2:35 AM,31.5,21.9,68,29.97,10.0,WNW,5.8,-,N/A,,Scattered Clouds,300,2013-02-17 07:35:00
2:55 AM,30.9,21.7,69,29.97,10.0,WNW,6.9,-,N/A,,Scattered Clouds,300,2013-02-17 07:55:00
3:15 AM,30.6,21.0,68,29.97,10.0,WNW,6.9,-,N/A,,Scattered Clouds,290,2013-02-17 08:15:00
3:35 AM,30.2,20.5,67,29.97,10.0,WNW,5.8,-,N/A,,Clear,300,2013-02-17 08:35:00
3:55 AM,29.8,20.5,68,29.98,10.0,WNW,4.6,-,N/A,,Clear,290,2013-02-17 08:55:00
4:15 AM,29.7,20.1,68,29.99,10.0,WNW,4.6,-,N/A,,Clear,290,2013-02-17 09:15:00
4:35 AM,29.3,19.6,67,30.00,10.0,WNW,5.8,-,N/A,,Clear,290,2013-02-17 09:35:00
4:55 AM,29.3,19.6,67,30.01,10.0,WNW,4.6,-,N/A,,Clear,290,2013-02-17 09:55:00
5:15 AM,29.3,19.0,66,30.01,10.0,WNW,6.9,-,N/A,,Clear,290,2013-02-17 10:15:00
5:35 AM,29.5,17.2,60,30.02,10.0,WNW,10.4,-,N/A,,Clear,290,2013-02-17 10:35:00
5:55 AM,29.1,17.2,61,30.03,10.0,WNW,6.9,-,N/A,,Clear,290,2013-02-17 10:55:00
6:15 AM,28.9,16.7,60,30.04,10.0,WNW,5.8,-,N/A,,Clear,300,2013-02-17 11:15:00
6:35 AM,28.2,17.1,63,30.04,10.0,WNW,4.6,-,N/A,,Clear,300,2013-02-17 11:35:00
6:55 AM,28.0,16.7,62,30.06,10.0,WNW,3.5,-,N/A,,Clear,290,2013-02-17 11:55:00
7:15 AM,27.5,16.9,64,30.06,10.0,WNW,3.5,-,N/A,,Clear,290,2013-02-17 12:15:00
7:35 AM,28.2,17.1,63,30.07,10.0,WNW,3.5,-,N/A,,Clear,290,2013-02-17 12:35:00
8:15 AM,29.7,15.8,56,30.09,10.0,WNW,5.8,-,N/A,,Clear,300,2013-02-17 13:15:00
8:35 AM,30.9,15.6,53,30.10,10.0,NW,8.1,-,N/A,,Clear,310,2013-02-17 13:35:00
8:55 AM,31.3,13.5,48,30.10,10.0,NW,11.5,16.1,N/A,,Clear,310,2013-02-17 13:55:00
9:15 AM,31.8,12.9,46,30.11,10.0,NW,15.0,25.3,N/A,,Clear,310,2013-02-17 14:15:00
9:35 AM,32.0,12.7,45,30.11,10.0,WNW,11.5,24.2,N/A,,Clear,290,2013-02-17 14:35:00
9:55 AM,32.0,12.9,45,30.12,10.0,WNW,10.4,21.9,N/A,,Mostly Cloudy,290,2013-02-17 14:55:00
10:15 AM,32.2,9.9,39,30.13,10.0,WNW,15.0,24.2,N/A,,Mostly Cloudy,290,2013-02-17 15:15:00
10:35 AM,32.7,6.6,33,30.14,10.0,WNW,16.1,24.2,N/A,,Scattered Clouds,300,2013-02-17 15:35:00
10:55 AM,33.4,7.2,33,30.14,10.0,WNW,11.5,24.2,N/A,,Scattered Clouds,290,2013-02-17 15:55:00
11:15 AM,33.6,7.0,33,30.14,10.0,NW,15.0,25.3,N/A,,Clear,320,2013-02-17 16:15:00
11:35 AM,34.0,6.1,31,30.14,10.0,WNW,15.0,24.2,N/A,,Clear,290,2013-02-17 16:35:00
11:55 AM,35.1,7.7,32,30.14,10.0,NW,12.7,20.7,N/A,,Clear,310,2013-02-17 16:55:00
12:15 PM,35.6,8.1,32,30.13,10.0,WNW,16.1,24.2,N/A,,Scattered Clouds,290,2013-02-17 17:15:00
12:35 PM,35.8,7.2,30,30.13,10.0,WNW,15.0,25.3,N/A,,Scattered Clouds,290,2013-02-17 17:35:00
12:55 PM,36.3,6.6,29,30.13,10.0,West,11.5,25.3,N/A,,Scattered Clouds,280,2013-02-17 17:55:00
1:15 PM,36.7,7.9,30,30.13,10.0,NW,10.4,25.3,N/A,,Scattered Clouds,310,2013-02-17 18:15:00
1:55 PM,38.3,8.6,29,30.12,10.0,NW,15.0,23.0,N/A,,Scattered Clouds,310,2013-02-17 18:55:00
2:15 PM,38.5,7.9,28,30.12,10.0,WNW,13.8,24.2,N/A,,Scattered Clouds,300,2013-02-17 19:15:00
2:35 PM,39.4,9.1,29,30.11,10.0,NW,12.7,21.9,N/A,,Clear,310,2013-02-17 19:35:00
2:55 PM,39.9,7.3,26,30.11,10.0,West,9.2,19.6,N/A,,Scattered Clouds,280,2013-02-17 19:55:00
3:15 PM,40.6,8.8,27,30.11,10.0,WNW,8.1,17.3,N/A,,Clear,300,2013-02-17 20:15:00
3:35 PM,40.3,6.8,25,30.11,10.0,WNW,8.1,25.3,N/A,,Clear,290,2013-02-17 20:35:00
3:55 PM,40.1,5.7,24,30.11,10.0,WNW,13.8,19.6,N/A,,Clear,300,2013-02-17 20:55:00
4:15 PM,40.3,5.4,24,30.12,10.0,NW,10.4,21.9,N/A,,Clear,310,2013-02-17 21:15:00
4:35 PM,40.3,5.9,24,30.13,10.0,WNW,12.7,18.4,N/A,,Clear,300,2013-02-17 21:35:00
4:55 PM,40.1,6.3,25,30.13,10.0,NW,9.2,-,N/A,,Clear,310,2013-02-17 21:55:00
5:15 PM,39.6,6.3,25,30.14,10.0,NW,8.1,-,N/A,,Clear,310,2013-02-17 22:15:00
5:35 PM,38.7,7.2,27,30.15,10.0,WNW,8.1,-,N/A,,Clear,290,2013-02-17 22:35:00
5:55 PM,37.4,8.2,30,30.16,10.0,WNW,5.8,-,N/A,,Clear,300,2013-02-17 22:55:00
6:15 PM,36.5,8.2,31,30.17,10.0,Calm,Calm,-,N/A,,Clear,0,2013-02-17 23:15:00
6:35 PM,35.6,8.2,32,30.17,10.0,Calm,Calm,-,N/A,,Clear,0,2013-02-17 23:35:00
6:55 PM,34.7,8.8,34,30.18,10.0,Calm,Calm,-,N/A,,Clear,0,2013-02-17 23:55:00
7:15 PM,35.1,8.6,33,30.19,10.0,Calm,Calm,-,N/A,,Clear,0,2013-02-18 00:15:00
7:35 PM,32.5,11.1,41,30.20,10.0,Calm,Calm,-,N/A,,Clear,0,2013-02-18 00:35:00
7:55 PM,32.2,13.3,46,30.20,10.0,Calm,Calm,-,N/A,,Clear,0,2013-02-18 00:55:00
8:15 PM,29.3,19.4,67,30.21,10.0,NW,3.5,-,N/A,,Clear,320,2013-02-18 01:15:00
8:35 PM,29.3,19.0,66,30.22,10.0,Calm,Calm,-,N/A,,Clear,0,2013-02-18 01:35:00
8:55 PM,29.5,18.9,65,30.23,10.0,Calm,Calm,-,N/A,,Clear,0,2013-02-18 01:55:00
9:15 PM,28.2,18.7,67,30.24,10.0,Calm,Calm,-,N/A,,Clear,0,2013-02-18 02:15:00
9:35 PM,29.7,17.8,61,30.25,10.0,Calm,Calm,-,N/A,,Clear,0,2013-02-18 02:35:00
9:55 PM,27.0,19.9,75,30.25,10.0,Calm,Calm,-,N/A,,Clear,0,2013-02-18 02:55:00
10:15 PM,27.0,19.6,74,30.26,10.0,Calm,Calm,-,N/A,,Clear,0,2013-02-18 03:15:00
10:35 PM,27.9,19.4,71,30.27,10.0,Calm,Calm,-,N/A,,Clear,0,2013-02-18 03:35:00
10:55 PM,27.9,20.7,74,30.28,10.0,Calm,Calm,-,N/A,,Clear,0,2013-02-18 03:55:00
11:15 PM,27.0,20.8,78,30.28,10.0,Calm,Calm,-,N/A,,Clear,0,2013-02-18 04:15:00
11:35 PM,25.0,19.9,81,30.29,10.0,Calm,Calm,-,N/A,,Clear,0,2013-02-18 04:35:00
11:55 PM,25.5,20.3,81,30.30,10.0,Calm,Calm,-,N/A,,Clear,0,2013-02-18 04:55:00